AFR1707 EGKK-LFPG

Flight info

Callsign AFR1707
Flight time N/A
Altitude 25000
Route BOGNA1X BOGNA DCT HARDY/N0405F230 M605 XIDIL UM605 BIBAX BIBAX9W
Aircraft A20N/M-RVSMW/W

Departure

Time 2026-04-15 13:12
Airport London Gatwick Airport (EGKK)

Arrival

Time N/A
Airport Charles de Gaulle International Airport (LFPG)
Time Latitude Longitude Altitude Speed Heading
2026-04-15 12:29 51.15871 -0.17374 199 ft 0 kts 347°
2026-04-15 12:59 51.15857 -0.17369 200 ft 2 kts 347°
2026-04-15 13:00 51.15843 -0.17364 200 ft 2 kts 347°
2026-04-15 13:00 51.15828 -0.17359 200 ft 2 kts 347°
2026-04-15 13:00 51.15813 -0.17354 200 ft 2 kts 348°
2026-04-15 13:00 51.15804 -0.17351 200 ft 2 kts 343°
2026-04-15 13:01 51.15792 -0.17336 200 ft 2 kts 300°
2026-04-15 13:01 51.15788 -0.17314 200 ft 1 kts 265°
2026-04-15 13:01 51.15789 -0.17305 200 ft 1 kts 254°
2026-04-15 13:01 51.15791 -0.17299 200 ft 0 kts 258°
2026-04-15 13:04 51.15790 -0.17300 200 ft 0 kts 258°
2026-04-15 13:04 51.15787 -0.17324 200 ft 3 kts 257°
2026-04-15 13:04 51.15780 -0.17376 200 ft 6 kts 257°
2026-04-15 13:05 51.15769 -0.17455 200 ft 7 kts 259°
2026-04-15 13:05 51.15739 -0.17500 200 ft 6 kts 184°
2026-04-15 13:05 51.15688 -0.17491 200 ft 7 kts 167°
2026-04-15 13:05 51.15636 -0.17472 200 ft 8 kts 167°
2026-04-15 13:06 51.15579 -0.17451 200 ft 8 kts 167°
2026-04-15 13:06 51.15514 -0.17428 200 ft 9 kts 167°
2026-04-15 13:06 51.15444 -0.17403 200 ft 11 kts 168°
2026-04-15 13:06 51.15360 -0.17374 200 ft 12 kts 168°
2026-04-15 13:07 51.15278 -0.17348 200 ft 11 kts 168°
2026-04-15 13:07 51.15219 -0.17277 200 ft 10 kts 138°
2026-04-15 13:07 51.15186 -0.17198 200 ft 8 kts 90°
2026-04-15 13:07 51.15196 -0.17102 200 ft 9 kts 78°
2026-04-15 13:08 51.15210 -0.16995 200 ft 10 kts 78°
2026-04-15 13:08 51.15217 -0.16934 200 ft 0 kts 80°
2026-04-15 13:10 51.15219 -0.16914 200 ft 5 kts 81°
2026-04-15 13:10 51.15213 -0.16814 200 ft 12 kts 124°
2026-04-15 13:10 51.15127 -0.16802 200 ft 12 kts 225°
2026-04-15 13:11 51.15107 -0.16916 200 ft 7 kts 257°
2026-04-15 13:11 51.15093 -0.17008 200 ft 8 kts 256°
2026-04-15 13:11 51.15068 -0.17186 200 ft 42 kts 257°
2026-04-15 13:11 51.14950 -0.18026 200 ft 110 kts 258°
2026-04-15 13:12 51.14749 -0.19502 245 ft 156 kts 258°
2026-04-15 13:12 51.14545 -0.21233 632 ft 167 kts 254°
2026-04-15 13:12 51.14304 -0.23083 1193 ft 174 kts 253°
2026-04-15 13:12 51.14047 -0.24952 1896 ft 174 kts 252°
2026-04-15 13:13 51.13776 -0.26809 2576 ft 175 kts 251°
2026-04-15 13:13 51.13497 -0.28691 3248 ft 176 kts 252°
2026-04-15 13:13 51.13214 -0.30634 3703 ft 191 kts 252°
2026-04-15 13:13 51.12899 -0.32814 4043 ft 214 kts 252°
2026-04-15 13:14 51.12570 -0.35148 4639 ft 226 kts 253°
2026-04-15 13:14 51.12208 -0.37713 4953 ft 249 kts 253°
2026-04-15 13:14 51.11674 -0.40218 4948 ft 228 kts 232°
2026-04-15 13:14 51.10504 -0.41679 4964 ft 210 kts 202°
2026-04-15 13:15 51.09050 -0.41996 4981 ft 215 kts 180°
2026-04-15 13:15 51.07568 -0.41779 4982 ft 216 kts 181°
2026-04-15 13:15 51.06000 -0.41586 4991 ft 236 kts 180°
2026-04-15 13:15 51.04343 -0.41385 4991 ft 243 kts 180°
2026-04-15 13:16 51.02634 -0.41167 4991 ft 244 kts 180°
2026-04-15 13:16 51.00964 -0.40952 4989 ft 243 kts 180°
2026-04-15 13:16 50.99251 -0.40735 5099 ft 249 kts 180°
2026-04-15 13:16 50.97519 -0.40516 5648 ft 249 kts 180°
2026-04-15 13:17 50.95813 -0.40297 5948 ft 248 kts 180°
2026-04-15 13:17 50.94086 -0.40078 5988 ft 247 kts 180°
2026-04-15 13:17 50.92395 -0.39864 5991 ft 247 kts 180°
2026-04-15 13:17 50.90689 -0.39646 5994 ft 247 kts 180°
2026-04-15 13:18 50.88956 -0.39428 5998 ft 247 kts 180°
2026-04-15 13:18 50.87244 -0.39212 5999 ft 247 kts 180°
2026-04-15 13:18 50.86015 -0.39056 6001 ft 247 kts 180°